Ree — C6QK9 — position and weather

sailwx.info

Track history (hours):
 
Tides and Currents Weather Stations Pressure Air Temp Water Temp Dewpoint Dewpoint Depression Visibility Wind Speed Wind Dir Waves Ship Positions

Ree

Last reported at 2018-Jan-20 19:00 UTC. Time now 2018-Jan-20 19:15 UTC.
Position N 17°01' W 061°46'.

Length 34 m.

Type: Pleasure craft. MMSI: 308008000.

Date/timePositionNaut miles runAvg speedWind from/ knotsBaromVisibWave heightAir tempDewpointWater temp
2018-Jan-20 19:00N 17°01' W 061°46'2 3.6
2018-Jan-20 18:30N 17°00' W 061°48'4 7.0
2018-Jan-20 18:00N 16°60' W 061°51'3 6.8
2018-Jan-20 17:30N 17°00' W 061°55'4 7.1
2018-Jan-20 17:00N 17°02' W 061°58'4 7.9
2018-Jan-20 16:28N 17°05' W 062°01'4 8.5
2018-Jan-20 16:00N 17°07' W 062°05'4 8.2
2018-Jan-20 15:30N 17°10' W 062°08'4 7.3
2018-Jan-20 14:57N 17°13' W 062°11'3 7.2
2018-Jan-20 14:30N 17°15' W 062°13'3 7.1
2018-Jan-20 14:00N 17°17' W 062°16'4 7.2
2018-Jan-20 13:26N 17°20' W 062°19'49 8.0
2018-Jan-20 07:20N 17°52' W 062°58'3 8.1
2018-Jan-20 07:00N 17°54' W 063°00'4 8.4
2018-Jan-20 06:30N 17°57' W 063°03'4 7.1
2018-Jan-20 06:00N 17°60' W 063°06'4 7.9
2018-Jan-20 05:30N 18°02' W 063°09'3 6.3
2018-Jan-20 04:58N 18°06' W 063°09'3 2.3
2018-Jan-20 03:34N 18°04' W 063°06'0 0.0
2018-Jan-20 03:19N 18°04' W 063°06'0 0.0
2018-Jan-20 02:49N 18°04' W 063°06'0 0.0
2018-Jan-20 02:20N 18°04' W 063°06'0 0.0
2018-Jan-20 01:49N 18°04' W 063°06'0 0.0
2018-Jan-20 01:19N 18°04' W 063°06'0 0.0
2018-Jan-20 00:49N 18°04' W 063°06'0 0.0
2018-Jan-20 00:19N 18°04' W 063°06'0 0.0
2018-Jan-19 23:52N 18°04' W 063°06'0 0.0
2018-Jan-19 23:22N 18°04' W 063°06'0 0.0
2018-Jan-19 22:37N 18°04' W 063°06'0 0.0
2018-Jan-19 22:25N 18°04' W 063°06'0 0.0
2018-Jan-19 21:52N 18°04' W 063°06'0 0.0
2018-Jan-19 21:25N 18°04' W 063°06'0 0.0
2018-Jan-19 20:40N 18°04' W 063°06'0 0.0
2018-Jan-19 20:25N 18°04' W 063°06'0 0.0
2018-Jan-19 19:52N 18°04' W 063°06'0 0.0
2018-Jan-19 19:28N 18°04' W 063°06'0 0.0
2018-Jan-19 18:55N 18°04' W 063°06'0 0.3
2018-Jan-19 18:29N 18°04' W 063°06'  
2018-Jan-11 16:42N 16°19' W 061°48'2 7.5
2018-Jan-11 16:26N 16°21' W 061°48'410.0
2018-Jan-11 16:01N 16°25' W 061°48'5 9.9
2018-Jan-11 15:30N 16°30' W 061°49'5 9.0
2018-Jan-11 15:00N 16°34' W 061°50'5 9.2
2018-Jan-11 14:31N 16°39' W 061°50'5 9.3
2018-Jan-11 14:00N 16°44' W 061°51'5 9.0
2018-Jan-11 13:30N 16°48' W 061°51'4 8.3
2018-Jan-11 13:00N 16°52' W 061°51'4 8.2
2018-Jan-11 12:31N 16°56' W 061°51'4 8.5
2018-Jan-11 12:01N 17°00' W 061°50'0 0.3
2018-Jan-11 11:30N 17°01' W 061°50'0 0.0
2018-Jan-11 11:00N 17°01' W 061°50'0 0.0
2018-Jan-11 10:30N 17°01' W 061°50'0 0.0
2018-Jan-11 10:00N 17°01' W 061°50'0 0.0
2018-Jan-11 09:30N 17°01' W 061°50'0 0.0
2018-Jan-11 09:00N 17°01' W 061°50'0 0.0
2018-Jan-11 08:30N 17°01' W 061°50'0 0.0
2018-Jan-11 08:00N 17°01' W 061°50'0 0.0
2018-Jan-11 07:30N 17°01' W 061°50'0 0.0
2018-Jan-11 07:00N 17°01' W 061°50'0 0.0
2018-Jan-11 06:30N 17°01' W 061°50'0 0.0
2018-Jan-11 05:57N 17°01' W 061°50'0 0.0
2018-Jan-11 05:30N 17°01' W 061°50'0 0.0
2018-Jan-11 05:00N 17°01' W 061°50'0 0.0
2018-Jan-11 04:30N 17°01' W 061°50'0 0.0
2018-Jan-11 04:00N 17°01' W 061°50'0 0.0
2018-Jan-11 03:24N 17°01' W 061°50'0 0.0
2018-Jan-11 03:00N 17°01' W 061°50'0 0.0
2018-Jan-11 02:30N 17°01' W 061°50'0 0.0
2018-Jan-11 02:00N 17°01' W 061°50'0 0.0
2018-Jan-11 01:30N 17°01' W 061°50'0 0.0
2018-Jan-11 01:00N 17°01' W 061°50'0 0.0
2018-Jan-11 00:30N 17°01' W 061°50'0 0.0
2018-Jan-10 23:57N 17°01' W 061°50'0 0.0
2018-Jan-10 23:30N 17°01' W 061°50'0 0.0
2018-Jan-10 22:55N 17°01' W 061°50'0 0.0
2018-Jan-10 22:28N 17°01' W 061°50'0 0.0
2018-Jan-10 21:58N 17°01' W 061°50'0 0.1
2018-Jan-10 21:29N 17°01' W 061°50'2 4.7
2018-Jan-10 21:00N 16°60' W 061°48'2 3.9
2018-Jan-10 20:29N 17°00' W 061°46'0 0.0
2018-Jan-10 19:59N 17°00' W 061°46'0 0.2
2018-Jan-10 19:28N 17°01' W 061°46'  
Track history (hours):
 
Tides and Currents Weather Stations Pressure Air Temp Water Temp Dewpoint Dewpoint Depression Visibility Wind Speed Wind Dir Waves Ship Positions

Ree

Last reported at 2018-Jan-20 19:00 UTC. Time now 2018-Jan-20 19:15 UTC.
Position N 17°01' W 061°46'.

Length 34 m.

Type: Pleasure craft. MMSI: 308008000.

Date/timePositionNaut miles runAvg speedWind from/ knotsBaromVisibWave heightAir tempDewpointWater temp
2018-Jan-20 19:00N 17°01' W 061°46'2 3.6
2018-Jan-20 18:30N 17°00' W 061°48'4 7.0
2018-Jan-20 18:00N 16°60' W 061°51'3 6.8
2018-Jan-20 17:30N 17°00' W 061°55'4 7.1
2018-Jan-20 17:00N 17°02' W 061°58'4 7.9
2018-Jan-20 16:28N 17°05' W 062°01'4 8.5
2018-Jan-20 16:00N 17°07' W 062°05'4 8.2
2018-Jan-20 15:30N 17°10' W 062°08'4 7.3
2018-Jan-20 14:57N 17°13' W 062°11'3 7.2
2018-Jan-20 14:30N 17°15' W 062°13'3 7.1
2018-Jan-20 14:00N 17°17' W 062°16'4 7.2
2018-Jan-20 13:26N 17°20' W 062°19'49 8.0
2018-Jan-20 07:20N 17°52' W 062°58'3 8.1
2018-Jan-20 07:00N 17°54' W 063°00'4 8.4
2018-Jan-20 06:30N 17°57' W 063°03'4 7.1
2018-Jan-20 06:00N 17°60' W 063°06'4 7.9
2018-Jan-20 05:30N 18°02' W 063°09'3 6.3
2018-Jan-20 04:58N 18°06' W 063°09'3 2.3
2018-Jan-20 03:34N 18°04' W 063°06'0 0.0
2018-Jan-20 03:19N 18°04' W 063°06'0 0.0
2018-Jan-20 02:49N 18°04' W 063°06'0 0.0
2018-Jan-20 02:20N 18°04' W 063°06'0 0.0
2018-Jan-20 01:49N 18°04' W 063°06'0 0.0
2018-Jan-20 01:19N 18°04' W 063°06'0 0.0
2018-Jan-20 00:49N 18°04' W 063°06'0 0.0
2018-Jan-20 00:19N 18°04' W 063°06'0 0.0
2018-Jan-19 23:52N 18°04' W 063°06'0 0.0
2018-Jan-19 23:22N 18°04' W 063°06'0 0.0
2018-Jan-19 22:37N 18°04' W 063°06'0 0.0
2018-Jan-19 22:25N 18°04' W 063°06'0 0.0
2018-Jan-19 21:52N 18°04' W 063°06'0 0.0
2018-Jan-19 21:25N 18°04' W 063°06'0 0.0
2018-Jan-19 20:40N 18°04' W 063°06'0 0.0
2018-Jan-19 20:25N 18°04' W 063°06'0 0.0
2018-Jan-19 19:52N 18°04' W 063°06'0 0.0
2018-Jan-19 19:28N 18°04' W 063°06'0 0.0
2018-Jan-19 18:55N 18°04' W 063°06'0 0.3
2018-Jan-19 18:29N 18°04' W 063°06'  
2018-Jan-11 16:42N 16°19' W 061°48'2 7.5
2018-Jan-11 16:26N 16°21' W 061°48'410.0
2018-Jan-11 16:01N 16°25' W 061°48'5 9.9
2018-Jan-11 15:30N 16°30' W 061°49'5 9.0
2018-Jan-11 15:00N 16°34' W 061°50'5 9.2
2018-Jan-11 14:31N 16°39' W 061°50'5 9.3
2018-Jan-11 14:00N 16°44' W 061°51'5 9.0
2018-Jan-11 13:30N 16°48' W 061°51'4 8.3
2018-Jan-11 13:00N 16°52' W 061°51'4 8.2
2018-Jan-11 12:31N 16°56' W 061°51'4 8.5
2018-Jan-11 12:01N 17°00' W 061°50'0 0.3
2018-Jan-11 11:30N 17°01' W 061°50'0 0.0
2018-Jan-11 11:00N 17°01' W 061°50'0 0.0
2018-Jan-11 10:30N 17°01' W 061°50'0 0.0
2018-Jan-11 10:00N 17°01' W 061°50'0 0.0
2018-Jan-11 09:30N 17°01' W 061°50'0 0.0
2018-Jan-11 09:00N 17°01' W 061°50'0 0.0
2018-Jan-11 08:30N 17°01' W 061°50'0 0.0
2018-Jan-11 08:00N 17°01' W 061°50'0 0.0
2018-Jan-11 07:30N 17°01' W 061°50'0 0.0
2018-Jan-11 07:00N 17°01' W 061°50'0 0.0
2018-Jan-11 06:30N 17°01' W 061°50'0 0.0
2018-Jan-11 05:57N 17°01' W 061°50'0 0.0
2018-Jan-11 05:30N 17°01' W 061°50'0 0.0
2018-Jan-11 05:00N 17°01' W 061°50'0 0.0
2018-Jan-11 04:30N 17°01' W 061°50'0 0.0
2018-Jan-11 04:00N 17°01' W 061°50'0 0.0
2018-Jan-11 03:24N 17°01' W 061°50'0 0.0
2018-Jan-11 03:00N 17°01' W 061°50'0 0.0
2018-Jan-11 02:30N 17°01' W 061°50'0 0.0
2018-Jan-11 02:00N 17°01' W 061°50'0 0.0
2018-Jan-11 01:30N 17°01' W 061°50'0 0.0
2018-Jan-11 01:00N 17°01' W 061°50'0 0.0
2018-Jan-11 00:30N 17°01' W 061°50'0 0.0
2018-Jan-10 23:57N 17°01' W 061°50'0 0.0
2018-Jan-10 23:30N 17°01' W 061°50'0 0.0
2018-Jan-10 22:55N 17°01' W 061°50'0 0.0
2018-Jan-10 22:28N 17°01' W 061°50'0 0.0
2018-Jan-10 21:58N 17°01' W 061°50'0 0.1
2018-Jan-10 21:29N 17°01' W 061°50'2 4.7
2018-Jan-10 21:00N 16°60' W 061°48'2 3.9
2018-Jan-10 20:29N 17°00' W 061°46'0 0.0
2018-Jan-10 19:59N 17°00' W 061°46'0 0.2
2018-Jan-10 19:28N 17°01' W 061°46'  

Dump ship's entire track history